Weather History for NW Arkansas Airport, AR

Change the Weather History Date:

Saturday, May 26, 2012

  Actual Average Record
Temperature  
Mean Temperature 80 °F -  
Max Temperature 91 °F - - ()
Min Temperature 69 °F - - ()
Cooling Degree Days 14    
Growing Degree Days 30 (Base 50)    
Moisture  
Dew Point 64 °F    
Average Humidity 63    
Maximum Humidity 90    
Minimum Humidity 38    
Precipitation  
Precipitation 0.00 in - - ()
Sea Level Pressure  
Sea Level Pressure 29.96 in    
Wind  
Wind Speed 9 mph (South)    
Max Wind Speed 17 mph    
Max Gust Speed 23 mph    
Visibility 10 miles    
Events      
T = Trace of Precipitation, MM = Missing Value Source: NWS Daily Summary

Daily Weather History Graph

Daily Weather History Graph

Search for Another Location

Airport:

Trip Planner

Search our weather history database for the weather conditions in past years. The results will help you decide how hot, cold, wet, or windy it might be!

Date:

Astronomy

May. 26, 2012 Rise Set
Actual Time 6:03 AM CDT 8:25 PM CDT
Civil Twilight 5:33 AM CDT 8:55 PM CDT
Nautical Twilight 4:57 AM CDT 9:31 PM CDT
Astronomical Twilight 4:17 AM CDT 10:11 PM CDT
Moon 11:01 AM CDT (5/26) 12:04 AM CDT (5/26)
Length of Visible Light 15h 21m
Length of Day
14h 22m
Waxing Crescent, 28% of the Moon is Illuminated
May 26
Waxing Crescent
May 28
First Quarter
Jun 4
Full
Jun 11
Last Quarter
Jun 19
New

Hourly Weather History & Observations

Time (CDT) Temp. Heat Index Dew Point Humidity Pressure Visibility Wind Dir Wind Speed Gust Speed Precip Events Conditions
12:53 AM 77.0 °F - 66.9 °F 71% 29.92 in 10.0 mi South 8.1 mph - N/A   Clear
1:53 AM 75.0 °F - 66.9 °F 76% 29.93 in 10.0 mi South 6.9 mph - N/A   Clear
2:53 AM 73.0 °F - 66.9 °F 81% 29.94 in 10.0 mi Calm Calm - N/A   Partly Cloudy
3:53 AM 71.1 °F - 66.0 °F 84% 29.95 in 10.0 mi SSE 4.6 mph - N/A   Clear
4:53 AM 69.1 °F - 66.0 °F 90% 29.94 in 10.0 mi SSE 6.9 mph - N/A   Clear
5:53 AM 69.1 °F - 66.0 °F 90% 29.95 in 9.0 mi SSE 5.8 mph - N/A   Clear
6:53 AM 70.0 °F - 66.9 °F 90% 29.97 in 9.0 mi SSE 4.6 mph - N/A   Clear
7:53 AM 73.0 °F - 68.0 °F 84% 29.99 in 10.0 mi SSE 6.9 mph - N/A   Clear
8:53 AM 75.9 °F - 68.0 °F 76% 30.01 in 10.0 mi South 9.2 mph 18.4 mph N/A   Clear
9:53 AM 81.0 °F 83.0 °F 66.0 °F 60% 30.00 in 10.0 mi SSW 16.1 mph 23.0 mph N/A   Clear
10:53 AM 82.9 °F 84.4 °F 64.0 °F 53% 30.00 in 10.0 mi South 17.3 mph 23.0 mph N/A   Clear
11:53 AM 84.9 °F 86.1 °F 64.0 °F 49% 30.01 in 10.0 mi South 17.3 mph 21.9 mph N/A   Clear
12:53 PM 84.9 °F 85.9 °F 63.0 °F 48% 30.00 in 10.0 mi South 15.0 mph 21.9 mph N/A   Clear
1:53 PM 90.0 °F 90.3 °F 62.1 °F 39% 29.99 in 10.0 mi South 13.8 mph 19.6 mph N/A   Clear
2:53 PM 90.0 °F 90.0 °F 61.0 °F 38% 29.98 in 10.0 mi South 13.8 mph 21.9 mph N/A   Clear
3:53 PM 89.1 °F 89.0 °F 61.0 °F 39% 29.96 in 10.0 mi South 11.5 mph - N/A   Clear
4:53 PM 89.1 °F 89.3 °F 62.1 °F 40% 29.95 in 10.0 mi South 12.7 mph - N/A   Clear
5:53 PM 88.0 °F 87.9 °F 61.0 °F 40% 29.95 in 10.0 mi South 12.7 mph - N/A   Clear
6:53 PM 86.0 °F 86.3 °F 62.1 °F 44% 29.94 in 10.0 mi South 6.9 mph - N/A   Clear
7:53 PM 80.1 °F 81.9 °F 64.9 °F 60% 29.94 in 10.0 mi South 6.9 mph - N/A   Clear
8:53 PM 80.1 °F 81.5 °F 63.0 °F 56% 29.94 in 10.0 mi South 13.8 mph - N/A   Clear
9:53 PM 78.1 °F - 63.0 °F 60% 29.94 in 10.0 mi South 9.2 mph - N/A   Clear
10:53 PM 75.0 °F - 63.0 °F 66% 29.95 in 10.0 mi South 9.2 mph - N/A   Clear
11:53 PM 73.0 °F - 63.0 °F 71% 29.94 in 10.0 mi South 9.2 mph - N/A   Clear